When you browse on this site, cookies collect data to enhance your experience and personalize the content and advertising you see.
Visit our Privacy Policy to learn more. By continuing to use the site, you agree to this use of cookies and data.
EN

Hourly Weather Konstantinovka

Today, 12 July, Sunday

Time Temperature Precipitation Wind Pressure Humidity
00:00 +20°C° 0 mm 3 mps 753 mmHg 65%
01:00 +19°C° 0 mm 3 mps 752 mmHg 68%
02:00 +19°C° 0 mm 3 mps 752 mmHg 70%
03:00 +18°C° 0 mm 3 mps 752 mmHg 73%
04:00 +18°C° 0 mm 3 mps 752 mmHg 74%
05:00 +18°C° 0 mm 3 mps 752 mmHg 75%
06:00 +18°C° 0 mm 3 mps 751 mmHg 77%
07:00 +20°C° 0 mm 3 mps 751 mmHg 72%
08:00 +22°C° 0 mm 4 mps 751 mmHg 67%
09:00 +26°C° 0 mm 5 mps 751 mmHg 62%
10:00 +27°C° 0 mm 5 mps 750 mmHg 59%
11:00 +29°C° 0 mm 5 mps 750 mmHg 56%
12:00 +32°C° 0 mm 5 mps 750 mmHg 53%
13:00 +33°C° 0.2 mm 4 mps 749 mmHg 51%
14:00 +33°C° 0.2 mm 4 mps 749 mmHg 50%
15:00 +34°C° 0.2 mm 3 mps 749 mmHg 48%
16:00 +31°C° 0.4 mm 3 mps 748 mmHg 53%
17:00 +30°C° 0.4 mm 3 mps 747 mmHg 57%
18:00 +29°C° 0.4 mm 3 mps 747 mmHg 62%
19:00 +27°C° 1.9 mm 3 mps 747 mmHg 70%
20:00 +26°C° 1.9 mm 3 mps 747 mmHg 78%
21:00 +24°C° 1.9 mm 3 mps 747 mmHg 86%
22:00 +22°C° 1 mm 3 mps 747 mmHg 86%
23:00 +23°C° 1 mm 2 mps 747 mmHg 86%

Tomorrow, 13 July, Monday

Time Temperature Precipitation Wind Pressure Humidity
00:00 +23°C° 1 mm 2 mps 746 mmHg 87%
01:00 +23°C° 0.2 mm 2 mps 746 mmHg 88%
02:00 +21°C° 0.2 mm 2 mps 746 mmHg 89%
03:00 +21°C° 0.2 mm 2 mps 746 mmHg 90%
04:00 +21°C° 0.2 mm 2 mps 746 mmHg 88%
05:00 +21°C° 0.2 mm 2 mps 745 mmHg 87%
06:00 +20°C° 0.2 mm 2 mps 745 mmHg 85%
07:00 +23°C° 0 mm 2 mps 745 mmHg 78%
08:00 +25°C° 0 mm 1 mps 745 mmHg 71%
09:00 +26°C° 0 mm 1 mps 745 mmHg 64%
10:00 +28°C° 0 mm 2 mps 745 mmHg 60%
11:00 +29°C° 0 mm 2 mps 744 mmHg 57%
12:00 +30°C° 0 mm 3 mps 744 mmHg 53%
13:00 +30°C° 0 mm 3 mps 744 mmHg 54%
14:00 +30°C° 0 mm 3 mps 744 mmHg 54%
15:00 +31°C° 0 mm 3 mps 743 mmHg 54%
16:00 +31°C° 0 mm 3 mps 743 mmHg 54%
17:00 +30°C° 0 mm 3 mps 743 mmHg 55%
18:00 +30°C° 0 mm 3 mps 743 mmHg 55%
19:00 +28°C° 1.6 mm 4 mps 743 mmHg 65%
20:00 +25°C° 1.6 mm 4 mps 743 mmHg 75%
21:00 +21°C° 1.6 mm 5 mps 743 mmHg 86%
22:00 +21°C° 1.3 mm 4 mps 743 mmHg 88%
23:00 +21°C° 1.3 mm 4 mps 743 mmHg 90%

Day after tomorrow, 14 July, Tuesday

Time Temperature Precipitation Wind Pressure Humidity
00:00 +21°C° 1.3 mm 3 mps 743 mmHg 93%
01:00 +20°C° 0.1 mm 3 mps 743 mmHg 93%
02:00 +20°C° 0.1 mm 2 mps 743 mmHg 93%
03:00 +20°C° 0.1 mm 1 mps 743 mmHg 94%
04:00 +19°C° 0.1 mm 2 mps 743 mmHg 93%
05:00 +19°C° 0.1 mm 2 mps 743 mmHg 93%
06:00 +19°C° 0.1 mm 3 mps 743 mmHg 93%
07:00 +21°C° 0.1 mm 3 mps 743 mmHg 89%
08:00 +22°C° 0.1 mm 3 mps 743 mmHg 85%
09:00 +24°C° 0.1 mm 3 mps 743 mmHg 81%
10:00 +24°C° 0.1 mm 3 mps 743 mmHg 80%
11:00 +25°C° 0.1 mm 3 mps 743 mmHg 78%
12:00 +25°C° 0.1 mm 3 mps 743 mmHg 77%
13:00 +25°C° 1 mm 4 mps 743 mmHg 75%
14:00 +26°C° 1 mm 4 mps 743 mmHg 72%
15:00 +26°C° 1 mm 4 mps 743 mmHg 70%
16:00 +26°C° 0.3 mm 5 mps 743 mmHg 72%
17:00 +24°C° 0.3 mm 6 mps 743 mmHg 73%
18:00 +24°C° 0.3 mm 6 mps 743 mmHg 75%
19:00 +22°C° 0.1 mm 6 mps 743 mmHg 79%
20:00 +21°C° 0.1 mm 5 mps 744 mmHg 84%
21:00 +20°C° 0.1 mm 5 mps 744 mmHg 89%
22:00 +19°C° 0.2 mm 5 mps 744 mmHg 89%
23:00 +19°C° 0.2 mm 5 mps 744 mmHg 90%

15 July, Wednesday

Time Temperature Precipitation Wind Pressure Humidity
00:00 +17°C° 0.2 mm 6 mps 744 mmHg 91%
01:00 +17°C° 0.2 mm 5 mps 744 mmHg 91%
02:00 +17°C° 0.2 mm 5 mps 744 mmHg 92%
03:00 +16°C° 0.2 mm 5 mps 744 mmHg 92%
04:00 +16°C° 0 mm 5 mps 744 mmHg 92%
05:00 +16°C° 0 mm 5 mps 744 mmHg 92%
06:00 +16°C° 0 mm 5 mps 744 mmHg 92%
07:00 +16°C° 0.1 mm 5 mps 744 mmHg 91%
08:00 +17°C° 0.1 mm 5 mps 745 mmHg 89%
09:00 +17°C° 0.1 mm 5 mps 745 mmHg 87%
10:00 +17°C° 0.4 mm 6 mps 745 mmHg 87%
11:00 +17°C° 0.4 mm 6 mps 745 mmHg 88%
12:00 +17°C° 0.4 mm 7 mps 746 mmHg 88%
13:00 +17°C° 0.1 mm 7 mps 746 mmHg 87%
14:00 +16°C° 0.1 mm 7 mps 746 mmHg 87%
15:00 +16°C° 0.1 mm 7 mps 747 mmHg 86%
16:00 +16°C° 0 mm 8 mps 747 mmHg 81%
17:00 +17°C° 0 mm 8 mps 747 mmHg 76%
18:00 +18°C° 0 mm 8 mps 747 mmHg 72%
19:00 +17°C° 0 mm 7 mps 748 mmHg 75%
20:00 +16°C° 0 mm 5 mps 748 mmHg 79%
21:00 +15°C° 0 mm 4 mps 748 mmHg 83%
22:00 +14°C° 0 mm 3 mps 748 mmHg 85%
23:00 +14°C° 0 mm 3 mps 748 mmHg 88%

16 July, Thursday

Time Temperature Precipitation Wind Pressure Humidity
00:00 +13°C° 0 mm 3 mps 748 mmHg 91%
01:00 +13°C° 0 mm 3 mps 748 mmHg 92%
02:00 +13°C° 0 mm 3 mps 748 mmHg 93%
03:00 +13°C° 0 mm 3 mps 748 mmHg 93%
04:00 +13°C° 0 mm 3 mps 748 mmHg 92%
05:00 +13°C° 0 mm 4 mps 748 mmHg 90%
06:00 +14°C° 0 mm 4 mps 748 mmHg 89%
07:00 +17°C° 0 mm 4 mps 748 mmHg 81%
08:00 +17°C° 0 mm 5 mps 748 mmHg 73%
09:00 +20°C° 0 mm 5 mps 748 mmHg 65%
10:00 +21°C° 0 mm 5 mps 748 mmHg 61%
11:00 +22°C° 0 mm 6 mps 748 mmHg 56%
12:00 +23°C° 0 mm 6 mps 748 mmHg 51%
13:00 +23°C° 0 mm 6 mps 748 mmHg 50%
14:00 +24°C° 0 mm 6 mps 748 mmHg 48%
15:00 +25°C° 0 mm 5 mps 748 mmHg 47%
16:00 +25°C° 0 mm 5 mps 748 mmHg 49%
17:00 +23°C° 0 mm 5 mps 747 mmHg 50%
18:00 +23°C° 0 mm 4 mps 747 mmHg 52%
19:00 +21°C° 0 mm 3 mps 747 mmHg 57%
20:00 +20°C° 0 mm 3 mps 748 mmHg 63%
21:00 +18°C° 0 mm 2 mps 748 mmHg 68%
22:00 +17°C° 0 mm 2 mps 748 mmHg 70%
23:00 +18°C° 0 mm 1 mps 748 mmHg 73%

17 July, Friday

Time Temperature Precipitation Wind Pressure Humidity
00:00 +16°C° 0 mm 1 mps 748 mmHg 75%
01:00 +16°C° 0 mm 1 mps 748 mmHg 76%
02:00 +16°C° 0 mm 1 mps 748 mmHg 77%
03:00 +15°C° 0 mm 1 mps 748 mmHg 79%
04:00 +16°C° 0 mm 1 mps 748 mmHg 79%
05:00 +16°C° 0 mm 1 mps 748 mmHg 79%
06:00 +16°C° 0 mm 1 mps 748 mmHg 79%
07:00 +19°C° 0 mm 1 mps 748 mmHg 73%
08:00 +21°C° 0 mm 1 mps 748 mmHg 66%
09:00 +23°C° 0 mm 1 mps 749 mmHg 60%
10:00 +24°C° 0 mm 1 mps 749 mmHg 55%
11:00 +25°C° 0 mm 1 mps 749 mmHg 49%
12:00 +27°C° 0 mm 1 mps 749 mmHg 44%
13:00 +27°C° 0 mm 1 mps 749 mmHg 42%
14:00 +28°C° 0 mm 1 mps 749 mmHg 40%
15:00 +28°C° 0 mm 1 mps 749 mmHg 38%
16:00 +28°C° 0 mm 1 mps 748 mmHg 38%
17:00 +28°C° 0 mm 1 mps 748 mmHg 38%
18:00 +28°C° 0 mm 1 mps 748 mmHg 39%
19:00 +26°C° 0 mm 1 mps 748 mmHg 44%
20:00 +24°C° 0 mm 1 mps 749 mmHg 50%
21:00 +22°C° 0 mm 1 mps 749 mmHg 55%
22:00 +21°C° 0 mm 1 mps 749 mmHg 57%
23:00 +21°C° 0 mm 1 mps 749 mmHg 58%
Show more